www.pogodaiklimat.ru

Погода и климат >> Архив погоды >> Египет >> Хургада


АРХИВ ПОГОДЫ в Хургаде

Время (UTC), дата Ветер
(напр.,м/с)
 
Видим.   Явления Облачность Т
(С)
Тd
(С)
f
(%)
Тe
(С)
Тes
(С)
Комфортность P
(гПа)
Po
(гПа)
Тmin
(С)
Tmax
(С)
R
(мм)
R24
(мм)
S
(см)
00 13.06 С 5 10 км ясно +30.3 +12.2 33 +31 +31 жарко 1009.2 1007.6
03 13.06 СЗ 5 10 км ясно +27.9 +13.8 42 +30 +30 жарко 1010.0 1008.4
06 13.06 С 6 10 км ясно +31.7 +13.5 33 +33 +36 жарко 1010.5 1008.9 +27.4
09 13.06 С 9 10 км ясно +34.7 +12.4 26 +35 +37 очень
жарко
1009.7 1008.1
15 13.06 С 9 10 км ясно +34.9 +11.3 24 +34 +35 очень
жарко
1006.5 1004.9
18 13.06 СЗ 6 10 км ясно +32.0 +12.3 30 +32 +32 жарко 1008.1 1006.5 +36.7
21 13.06 СЗ 2 10 км ясно +30.6 +9.5 27 +30 +30 жарко 1008.1 1006.5
00 14.06 С 6 10 км ясно +29.7 +11.7 33 +30 +30 жарко 1007.6 1006.0
03 14.06 З 2 10 км ясно +27.6 +13.2 41 +29 +29 жарко 1007.4 1005.8
06 14.06 С 6 10 км ясно +30.8 +15.2 39 +33 +36 душно 1008.4 1006.8 +27.3
09 14.06 С 7 10 км ясно +32.8 +15.8 36 +35 +42 душно 1008.0 1006.4
12 14.06 С 7 10 км 1/1 600 м
[Sc]
+34.6 +11.1 24 +34 +39 очень
жарко
1006.2 1004.6
15 14.06 С 8 10 км 1/1 600 м
[Sc]
+34.3 +10.3 23 +33 +34 жарко 1005.2 1003.6
18 14.06 С 7 10 км ясно +31.5 +13.3 33 +33 +33 жарко 1006.6 1005.0 +35.2
21 14.06 СЗ 4 10 км ясно +30.2 +11.2 31 +31 +31 жарко 1006.9 1005.3
00 15.06 СЗ 4 10 км ясно +28.7 +12.2 36 +30 +30 жарко 1005.9 1004.3
03 15.06 СЗ 2 10 км ясно +27.3 +12.5 40 +29 +29 жарко 1006.4 1004.8
06 15.06 С 2 10 км ясно +32.0 +14.2 34 +34 +42 душно 1007.4 1005.8 +27.2
09 15.06 С 5 10 км ясно +34.0 +15.5 33 +36 +47 душно 1007.0 1005.4
12 15.06 СВ 3 10 км 1/1 600 м
[Sc]
+35.9 +14.0 27 +37 +49 душно 1006.1 1004.5
15 15.06 В 3 10 км 1/1 600 м
[Sc]
+34.0 +14.5 31 +35 +37 очень
жарко
1005.6 1004.0
18 15.06 Ю 4 10 км 3/3 600 м
[Sc]
+31.9 +14.8 36 +34 +34 душно 1006.3 1004.7 +36.0
21 15.06 штиль 0 10 км ясно +30.8 +13.1 34 +32 +32 жарко 1006.9 1005.3
00 16.06 штиль 0 10 км ясно +28.7 +6.7 25 +28 +28 жарко 1006.3 1004.7
03 16.06 СЗ 2 10 км ясно +27.6 +6.9 27 +27 +27 жарко 1006.9 1005.3
06 16.06 штиль 0 10 км ясно +33.1 +14.2 32 +34 +47 очень
жарко
1008.4 1006.8 +27.5
09 16.06 СВ 3 10 км ясно +35.4 +13.5 27 +36 +54 опасность
солнечного
удара
1008.5 1006.9
12 16.06 ЮВ 3 10 км ясно +34.7 +19.1 40 +40 +53 опасность
солнечного
удара
1007.2 1005.6
15 16.06 ЮВ 3 10 км 1/1 600 м
[Cu hum]
+33.2 +20.4 47 +40 +42 очень
душно
1007.0 1005.4
18 16.06 ЮЗ 3 10 км ясно +33.2 +12.2 28 +33 +33 жарко 1007.7 1006.1 +36.5
21 16.06 СЗ 3 10 км ясно +31.7 +9.3 25 +31 +31 жарко 1009.0 1007.4
00 17.06 СЗ 4 10 км ясно +28.7 +8.3 28 +28 +28 жарко 1008.4 1006.8
03 17.06 штиль 0 10 км ясно +28.0 +7.8 28 +28 +28 жарко 1008.6 1007.0
06 17.06 СЗ 3 10 км ясно +33.0 +11.5 27 +33 +41 жарко 1009.8 1008.2 +27.3
09 17.06 СВ 3 10 км ясно +38.4 +7.2 15 +36 +54 опасность
солнечного
удара
1009.7 1008.2
15 17.06 ЮВ 2 10 км 3/3 600 м
[Sc]
+37.3 +13.3 24 +38 +39 душно 1008.1 1006.5
18 17.06 штиль 0 10 км ясно +34.4 +10.9 24 +34 +34 очень
жарко
1008.8 1007.2 +38.9
21 17.06 СЗ 3 10 км ясно +33.4 +7.4 20 +32 +32 жарко 1010.0 1008.4
00 18.06 СЗ 4 10 км ясно +31.3 +8.3 24 +30 +30 жарко 1009.8 1008.2
03 18.06 СЗ 4 10 км ясно +28.5 +15.1 44 +31 +31 душно 1010.3 1008.7
06 18.06 С 5 10 км ясно +32.6 +16.4 38 +36 +41 очень
душно
1011.4 1009.8 +28.5
09 18.06 С 8 10 км ясно +36.0 +14.1 27 +37 +40 душно 1011.2 1009.6
12 18.06 С 7 10 км ясно +37.8 +9.4 18 +36 +40 очень
жарко
1009.6 1008.0
18 18.06 С 6 10 км ясно +35.0 +7.9 19 +33 +33 жарко 1009.8 1008.2 +37.9
21 18.06 З 2 10 км ясно +32.1 +3.1 16 +29 +29 жарко 1010.5 1008.9
00 19.06 СЗ 2 10 км ясно +31.2 +6.3 21 +30 +30 жарко 1009.5 1007.9
03 19.06 штиль 0 10 км ясно +29.5 +4.9 21 +28 +28 жарко 1009.2 1007.6
06 19.06 штиль 0 10 км ясно +35.5 +9.1 20 +34 +46 очень
жарко
1010.3 1008.7 +29.5
09 19.06 С 4 10 км ясно +36.8 +9.4 19 +35 +51 опасность
солнечного
удара
1010.4 1008.8
12 19.06 С 5 10 км ясно +40.5 +7.8 14 +38 +47 очень
жарко
1008.4 1006.9
15 19.06 штиль 0 10 км ясно +38.7 +13.3 22 +39 +42 душно 1007.4 1005.9
18 19.06 штиль 0 10 км ясно +35.1 +12.1 25 +35 +35 очень
жарко
1008.4 1006.8 +41.1

 

Местоположение метеостанции Хургада (Египет): широта 27.15 долгота 33.72 высота над уровнем моря 14 м.

В архиве по умолчанию представлена погода в Хургаде за последнюю неделю. Архивные данные за месяц целиком и за предыдущие месяцы, начиная с января 2011 года, Вы можете получить, выбрав интересующий диапазон дат из раскрывающегося списка и нажав кнопку "Ввод!".


*Определитесь, кто Вы:
робот инопланетянин человек

Внимание! Время в таблицах - всемирное. Для получения местного времени необходимо прибавить поправку, которая равна 2 ч.

Смотрите также архив погоды в соседних городах и на ближайших метеорологических станциях:

Погода в Эль-Торе (Египет) (121 км)
Погода в Эль-Кусейре (Египет) (121 км)
Погода в Университете South Of Valley (Египет) (143 км)
Погода в Луксоре (Египет) (193 км)
Погода в Абу Редис (Египет) (202 км)
Погода в Асьюте (Египет) (268 км)
Погода в Рас-Седре (Египет) (287 км)
Погода в Эйлате (Израиль) (293 км)
Погода в Эль-Ваджхе (Саудовская Аравия) (294 км)
Погода в Акаба (Иордания) (295 км)

Пояснения к столбцам:

Ветер - указаны скорость ветра в м/с - средняя за 10 мин, порывы в срок и между сроками (в фигурных скобках) и направление, откуда дует ветер: С - северный, СВ - северо-восточный, В - восточный, ЮВ - юго-восточный, Ю - южный, ЮЗ - юго-западный, З - западный, СЗ - северо-западный.
Видимость - горизонтальная дальность видимости в метрах или километрах. При видимости от 1 до 10 км при отсутствии осадков обычно наблюдается дымка, при ухудшении видимости до 1 км и менее - туман. В сухую погоду видимость может ухудшаться дымом, пылью или мглою.
Явления - указаны атмосферные явления, наблюдавшиеся в срок или в последний час перед сроком; фигурными скобками обозначены явления, наблюдавшиеся между сроками (за 1-3 часа до срока); квадратными скобками обозначены град или гололедные отложения с указанием их диаметра в мм.
Облачность - указаны через наклонную черту общая и нижняя облачность в баллах и высота нижней границы облаков в метрах; квадратными скобками обозначены формы облаков: Ci - перистые, Cs - перисто-слоистые, Cc - перисто-кучевые, Ac - высококучевые, As - высокослоистые, Sc - слоисто-кучевые, Ns - слоисто-дождевые, Cu - кучевые, Cb - кучево-дождевые. Подробнее классификацию облаков см. в Атласе облаков (PDF).
T - Температура воздуха - температура, измеренная на высоте 2 м над землей.
Td - Температура точки росы - температура, при понижении до которой содержащийся в воздухе водяной пар достигнет насыщения.
f - Относительная влажность воздуха - влажноcть воздуха, измеренная на высоте 2 м над землей.
Te - Эффективная температура - температура, которую ощущает одетый по сезону человек в тени. Характеристика душности погоды. При расчете учитывается влияние влажности воздуха и скорости ветра на теплоощущения человека.
Tes - Эффективная температура на солнце - температура, которую ощущает человек, с поправкой на солнечный нагрев. Характеристика знойности погоды. Зависит от высоты солнца над горизонтом, облачности и скорости ветра. Ночью, в пасмурную погоду, а также при ветре 12 м/с и более поправка равна нулю.
P - Атмосферное давление - приведенное к уровню моря атмосферное давление.
Po - Атмосферное давление - измеренное на уровне метеостанции атмосферное давление.
Tmin - Минимальная температура - минимум температуры воздуха на высоте 2 м над землей.
Tmax - Максимальная температура - максимум температуры воздуха на высоте 2 м над землей.
R - Количество осадков - Количество выпавших осадков за период времени, мм. При наведении курсора мыши на число - период времени, за который выпало указанное количество осадков.
R24 - Количество осадков - Количество выпавших осадков за 24 часа, мм.
S - Снежный покров - Высота снежного покрова, см. При наведении курсора мыши на число - состояние снежного покрова и степень покрытия местности в баллах.